Ely, MN

7:40 AM CDT on April 25, 2017 (GMT -0500)
Ely Municipal

Weather History for KELO - November, 2012

Change the Weather History Date:

Friday, November 23, 2012

  Actual Average Record
Temperature  
Mean Temperature 18 °F -  
Max Temperature 23 °F 30 °F 46 °F (1998)
Min Temperature 12 °F 17 °F -7 °F (1997)
Degree Days  
Heating Degree Days 48    
Moisture  
Dew Point 12 °F    
Average Humidity 83    
Maximum Humidity 100    
Minimum Humidity 73    
Precipitation  
Precipitation 0.04 in - - ()
Sea Level Pressure  
Sea Level Pressure 30.10 in    
Wind  
Wind Speed 12 mph (NW)    
Max Wind Speed 20 mph    
Max Gust Speed 31 mph    
Visibility 6 miles    
Events Snow    
Averages and records for this station are not official NWS values.
T = Trace of Precipitation, MM = Missing Value Source: NWS Daily Summary

Daily Weather History Graph

Daily Weather History Graph

Search for Another Location

Airport or City:

Trip Planner

Search our weather history database for the weather conditions in past years. The results will help you decide how hot, cold, wet, or windy it might be!

Date:

Astronomy

Nov. 23, 2012 Rise Set
Actual Time 7:25 AM CST 4:21 PM CST
Civil Twilight 6:50 AM CST 4:56 PM CST
Nautical Twilight 6:12 AM CST 5:34 PM CST
Astronomical Twilight 5:35 AM CST 6:11 PM CST
Moon 1:52 PM CST (11/23) 2:27 AM CST (11/23)
Length of Visible Light 10h 05m
Length of Day
8h 56m
Waxing Gibbous, 80% of the Moon is Illuminated
Nov 23
Waxing Gibbous
Nov 28
Full
Dec 6
Last Quarter
Dec 13
New
Dec 19
First Quarter

Hourly Weather History & Observations

Time (CST) Temp. Windchill Dew Point Humidity Pressure Visibility Wind Dir Wind Speed Gust Speed Precip Events Conditions
12:13 AM 23.0 °F 11.7 °F 21.2 °F 93% 29.74 in 1.0 mi NNW 11.5 mph 20.7 mph 0.01 in Snow Snow
12:32 AM 21.2 °F 8.3 °F 21.2 °F 100% 29.75 in 1.0 mi NNW 13.8 mph 25.3 mph 0.01 in Snow Snow
12:53 AM 21.2 °F 7.8 °F 19.4 °F 93% 29.76 in 1.0 mi NNW 15.0 mph 31.1 mph 0.02 in Snow Snow
1:13 AM 21.2 °F 8.9 °F 19.4 °F 93% 29.78 in 1.0 mi NNW 12.7 mph 21.9 mph N/A Snow Snow
1:32 AM 21.2 °F 9.5 °F 17.6 °F 86% 29.79 in 1.0 mi NW 11.5 mph 31.1 mph 0.01 in Snow Light Snow
1:53 AM 19.4 °F 5.0 °F 17.6 °F 93% 29.80 in 1.0 mi NNW 16.1 mph 27.6 mph 0.01 in Snow Light Snow
2:13 AM 19.4 °F 5.5 °F 17.6 °F 93% 29.82 in 1.2 mi NW 15.0 mph 21.9 mph N/A Snow Light Snow
2:33 AM 19.4 °F 6.0 °F 17.6 °F 93% 29.83 in 1.2 mi NW 13.8 mph 26.5 mph N/A Snow Light Snow
2:53 AM 19.4 °F 6.6 °F 17.6 °F 93% 29.85 in 1.0 mi NNW 12.7 mph 25.3 mph 0.01 in Snow Light Snow
3:12 AM 19.4 °F 7.9 °F 15.8 °F 86% 29.87 in 1.0 mi NW 10.4 mph 24.2 mph N/A Snow Light Snow
3:33 AM 19.4 °F 6.6 °F 15.8 °F 86% 29.88 in 1.2 mi NW 12.7 mph 23.0 mph N/A Snow Light Snow
3:53 AM 17.6 °F 4.3 °F 15.8 °F 93% 29.89 in 4.0 mi NNW 12.7 mph 24.2 mph N/A Snow Light Snow
4:12 AM 17.6 °F 1.3 °F 15.8 °F 93% 29.91 in 4.0 mi NW 19.6 mph 29.9 mph N/A Snow Light Snow
4:33 AM 17.6 °F 5.7 °F 15.8 °F 93% 29.93 in 7.0 mi NW 10.4 mph 26.5 mph N/A Snow Light Snow
4:53 AM 17.6 °F 4.3 °F 15.8 °F 93% 29.94 in 7.0 mi NNW 12.7 mph 20.7 mph N/A Snow Light Snow
5:12 AM 17.6 °F 4.3 °F 15.8 °F 93% 29.95 in 5.0 mi NNW 12.7 mph 23.0 mph N/A Snow Light Snow
5:33 AM 17.6 °F 3.2 °F 14.0 °F 86% 29.97 in 4.0 mi NNW 15.0 mph 26.5 mph N/A Snow Light Snow
5:53 AM 17.6 °F 1.3 °F 14.0 °F 86% 29.99 in 4.0 mi NW 19.6 mph 29.9 mph N/A Snow Light Snow
6:12 AM 17.6 °F 3.7 °F 14.0 °F 86% 30.00 in 5.0 mi NNW 13.8 mph 25.3 mph N/A Snow Light Snow
6:33 AM 17.6 °F 2.7 °F 12.2 °F 79% 30.01 in 5.0 mi NNW 16.1 mph 29.9 mph N/A Snow Light Snow
6:53 AM 17.6 °F 2.7 °F 12.2 °F 79% 30.02 in 7.0 mi NW 16.1 mph 23.0 mph N/A Snow Light Snow
7:12 AM 17.6 °F 3.7 °F 14.0 °F 86% 30.04 in 4.0 mi NW 13.8 mph 25.3 mph N/A Snow Light Snow
7:33 AM 17.6 °F 5.0 °F 12.2 °F 79% 30.05 in 4.0 mi NW 11.5 mph 24.2 mph N/A Snow Light Snow
7:53 AM 17.6 °F 7.3 °F 12.2 °F 79% 30.06 in 4.0 mi NW 8.1 mph 23.0 mph N/A Snow Light Snow
8:12 AM 17.6 °F 4.3 °F 12.2 °F 79% 30.07 in 3.0 mi NW 12.7 mph 21.9 mph N/A Snow Light Snow
8:33 AM 17.6 °F 5.0 °F 12.2 °F 79% 30.09 in 4.0 mi NW 11.5 mph 23.0 mph N/A Snow Light Snow
8:53 AM 17.6 °F 5.0 °F 12.2 °F 79% 30.09 in 5.0 mi NNW 11.5 mph 23.0 mph N/A Snow Light Snow
9:13 AM 17.6 °F 4.3 °F 12.2 °F 79% 30.11 in 5.0 mi NW 12.7 mph 26.5 mph N/A Snow Light Snow
9:32 AM 17.6 °F 7.3 °F 12.2 °F 79% 30.12 in 5.0 mi NW 8.1 mph 19.6 mph N/A Snow Light Snow
9:53 AM 17.6 °F 5.0 °F 12.2 °F 79% 30.13 in 4.0 mi NNW 11.5 mph 18.4 mph N/A Snow Light Snow
10:13 AM 17.6 °F 5.7 °F 12.2 °F 79% 30.14 in 7.0 mi NNW 10.4 mph 20.7 mph N/A Snow Light Snow
10:33 AM 17.6 °F 5.0 °F 12.2 °F 79% 30.14 in 10.0 mi NNW 11.5 mph 21.9 mph N/A Snow Light Snow
10:53 AM 17.6 °F 3.2 °F 12.2 °F 79% 30.15 in 7.0 mi NW 15.0 mph 23.0 mph N/A Snow Light Snow
11:13 AM 17.6 °F 4.3 °F 12.2 °F 79% 30.15 in 2.0 mi NNW 12.7 mph 23.0 mph N/A Snow Light Snow
11:33 AM 17.6 °F 8.2 °F 12.2 °F 79% 30.16 in 2.5 mi NNW 6.9 mph 24.2 mph N/A Snow Light Snow
11:53 AM 17.6 °F 3.7 °F 12.2 °F 79% 30.16 in 2.0 mi NW 13.8 mph 18.4 mph N/A Snow Light Snow
12:13 PM 17.6 °F 3.7 °F 12.2 °F 79% 30.16 in 2.5 mi NW 13.8 mph 25.3 mph N/A Snow Light Snow
12:32 PM 17.6 °F 5.0 °F 12.2 °F 79% 30.17 in 2.5 mi NW 11.5 mph 24.2 mph N/A Snow Light Snow
12:53 PM 17.6 °F 4.3 °F 10.4 °F 73% 30.17 in 7.0 mi NW 12.7 mph 23.0 mph N/A Snow Light Snow
1:13 PM 17.6 °F 2.2 °F 10.4 °F 73% 30.17 in 10.0 mi NW 17.3 mph 23.0 mph N/A Snow Light Snow
1:32 PM 17.6 °F 5.0 °F 10.4 °F 73% 30.18 in 10.0 mi NW 11.5 mph 18.4 mph N/A Snow Light Snow
1:53 PM 17.6 °F 1.7 °F 10.4 °F 73% 30.18 in 10.0 mi NW 18.4 mph 25.3 mph N/A Snow Light Snow
2:12 PM 17.6 °F 7.3 °F 10.4 °F 73% 30.18 in 10.0 mi NW 8.1 mph 23.0 mph N/A   Overcast
2:33 PM 17.6 °F 5.0 °F 10.4 °F 73% 30.19 in 5.0 mi NW 11.5 mph 19.6 mph N/A Snow Light Snow
2:53 PM 17.6 °F 7.3 °F 12.2 °F 79% 30.20 in 0.8 mi NW 8.1 mph - N/A Snow Light Snow
3:12 PM 17.6 °F 5.0 °F 12.2 °F 79% 30.20 in 4.0 mi NW 11.5 mph 16.1 mph N/A Snow Light Snow
3:33 PM 15.8 °F 7.2 °F 10.4 °F 79% 30.20 in 5.0 mi NW 5.8 mph - N/A Snow Light Snow
3:53 PM 15.8 °F 2.7 °F 10.4 °F 79% 30.21 in 4.0 mi NW 11.5 mph 19.6 mph N/A Snow Light Snow
4:12 PM 15.8 °F 4.2 °F 10.4 °F 79% 30.21 in 5.0 mi NW 9.2 mph 18.4 mph N/A Snow Light Snow
4:33 PM 15.8 °F 3.4 °F 12.2 °F 86% 30.21 in 5.0 mi NW 10.4 mph 16.1 mph N/A Snow Light Snow
4:53 PM 15.8 °F 5.1 °F 12.2 °F 86% 30.22 in 5.0 mi NNW 8.1 mph - N/A Snow Light Snow
5:12 PM 15.8 °F 3.4 °F 12.2 °F 86% 30.22 in 5.0 mi NNW 10.4 mph - N/A Snow Light Snow
5:33 PM 15.8 °F 4.2 °F 12.2 °F 86% 30.23 in 4.0 mi NNW 9.2 mph - N/A Snow Light Snow
5:53 PM 15.8 °F 3.4 °F 10.4 °F 79% 30.24 in 7.0 mi NW 10.4 mph 16.1 mph N/A Snow Light Snow
6:12 PM 15.8 °F 3.4 °F 10.4 °F 79% 30.24 in 10.0 mi NW 10.4 mph 18.4 mph N/A Snow Light Snow
6:33 PM 15.8 °F 4.2 °F 10.4 °F 79% 30.24 in 7.0 mi NNW 9.2 mph - N/A Snow Light Snow
6:53 PM 15.8 °F 6.1 °F 10.4 °F 79% 30.25 in 10.0 mi NW 6.9 mph 19.6 mph N/A Snow Light Snow
7:12 PM 15.8 °F 5.1 °F 10.4 °F 79% 30.24 in 10.0 mi NNW 8.1 mph - N/A Snow Light Snow
7:33 PM 14.0 °F 2.9 °F 10.4 °F 86% 30.24 in 7.0 mi NNW 8.1 mph 17.3 mph N/A Snow Light Snow
7:53 PM 14.0 °F 2.0 °F 8.6 °F 79% 30.24 in 10.0 mi NW 9.2 mph - N/A Snow Light Snow
8:12 PM 14.0 °F 1.2 °F 10.4 °F 86% 30.24 in 10.0 mi NW 10.4 mph - N/A Snow Light Snow
8:33 PM 14.0 °F -0.2 °F 10.4 °F 86% 30.24 in 10.0 mi NW 12.7 mph 17.3 mph N/A Snow Light Snow
8:52 PM 14.0 °F 0.5 °F 10.4 °F 86% 30.23 in 10.0 mi NW 11.5 mph 18.4 mph N/A Snow Light Snow
9:11 PM 14.0 °F -0.2 °F 8.6 °F 79% 30.23 in 10.0 mi NNW 12.7 mph 19.6 mph N/A Snow Light Snow
9:33 PM 12.2 °F 1.7 °F 6.8 °F 79% 30.23 in 10.0 mi North 6.9 mph 16.1 mph N/A   Scattered Clouds
9:53 PM 12.2 °F 0.7 °F 6.8 °F 79% 30.24 in 10.0 mi NNW 8.1 mph 16.1 mph N/A   Scattered Clouds
10:12 PM 12.2 °F 0.7 °F 8.6 °F 85% 30.24 in 10.0 mi NNW 8.1 mph - N/A Snow Light Snow
10:33 PM 12.2 °F 2.9 °F 8.6 °F 85% 30.24 in 10.0 mi NW 5.8 mph - N/A   Overcast
10:53 PM 12.2 °F 6.1 °F 8.6 °F 85% 30.24 in 10.0 mi NNW 3.5 mph - N/A   Overcast
11:12 PM 12.2 °F 6.1 °F 8.6 °F 85% 30.24 in 10.0 mi NNW 3.5 mph - N/A Snow Light Snow
11:33 PM 12.2 °F 1.7 °F 8.6 °F 85% 30.25 in 10.0 mi NW 6.9 mph - N/A Snow Light Snow
11:53 PM 12.2 °F 1.7 °F 8.6 °F 85% 30.24 in 7.0 mi NNW 6.9 mph - N/A Snow Light Snow